Location: *
(38.3914°N, 75.0697°W)
Time: 17:11:53
(UTC+00:00)

Meteor 2-10 Rocket - Pass Details

Date: 17 February 2020
Orbit: 734 x 885 km, 81.2° (Epoch: 31 March)

Event Time Altitude Azimuth Distance (km) Brightness Sun altitude
Exits shadow 09:30:56 43° 357° (N) 1,099 4.2 -27.7°
Drops below altitude 10° 09:34:26 10° 6° (N) 2,333 6.1 -27.0°
Sets 09:36:46 0° 8° (N) 3,244 6.9 -26.5°
